weather.gov     
National Weather Service

Regional Weather Roundup
NWS Homepage
This page is being discontinued on March 12, 2014.
The same data is available at this site. Please update your bookmarks.
Thank you, and we apologize for the inconvenience.
Please send an email to SR-SRH.Webmaster@noaa.gov with any concerns.


Current Version
Previous Version:    01  02  03  04  05  06  07  08  09  10  11  12  13  14  15  16  17  18  19  20  21  22  23  24  25  26  27  28  29  30  
   31  32  33  34  35  36  37  38  39  40  41  42  43  44  45  46  47  48  49  50  51  52  53  54  55  56  57  58  59  60  
[Printable]
220
ASUS46 KPDT 282025
RWRPDT
PENDLETON REGIONAL WEATHER ROUNDUP
NATIONAL WEATHER SERVICE PENDLETON OREGON
1200 PM PST WED JAN 28 2015

NOTE: FAIR INDICATES FEW OR NO CLOUDS BELOW 12,000 FEET WITH NO
SIGNIFICANT WEATHER AND/OR OBSTRUCTIONS TO VISIBILITY.

# INDICATES UNOFFICIAL STATION AND DATA

WAZ520-282110-
EAST SLOPES OF WASHINGTON CASCADES

CITY            SKY/WX      TMP DP  RH  WIND    PRES   REMARKS
#BULLFROG 2SW   N/A         47  38  71  N1      27.92F
#BUMPING DAM    N/A         35  N/A N/A N6      N/A
#CLE ELUM HS    N/A         47  35  63  SE1     30.28F
#CLE ELUM LAKE  N/A         45  34  65  SW1     30.34F
#CLIFFDEL 2NW   N/A         39  32  76  CALM    N/A
#GLENWOOD       N/A         43  40  89  CALM    30.39
#MANASTASH CYN  N/A         45  34  65  N1      30.28S
#NELSON         N/A         44  42  93  CALM    30.40F
#NELSON 3SW     N/A         34  32  92  CALM    30.59S
#NILE           N/A         42  36  79  CALM    29.63F
#RONALD 2NW     N/A         42  34  73  SW1     30.17F
#SNOWDEN        N/A         52  40  63  CALM    N/A
#TEANAWAY 4NE   N/A         46  37  71  CALM    N/A
#TROUT LAKE 1NE N/A         51  41  68  S1      30.36F
$$

WAZ521-282110-
SIMCOE HIGHLANDS

CITY            SKY/WX      TMP DP  RH  WIND    PRES   REMARKS
#BICKLETON HS   N/A         47  30  51  E5      N/A
#CENTERVILLE 4W N/A         45  44  96  CALM    30.08F
#CENTERVILLE 1SWN/A         43  41  93  CALM    30.35F
#GOLDENDALE     N/A         42  42  100 S2      N/A
#GOLDENDALE 1NE N/A         42  41  96  S2      N/A
#GOLDENDALE 1S  N/A         45  43  93  CALM    30.30F
#GOLDENDALE 5WNWN/A         43  41  93  CALM    30.36F
#GOODNOE HILLS  N/A         41  38  89  E3      N/A
#LYLE 6NE       N/A         44  43  96  N2      30.34F
$$

WAZ026-282110-
KITTITAS VALLEY

CITY            SKY/WX      TMP DP  RH  WIND    PRES   REMARKS
ELLENSBURG AP   SUNNY       50  36  58  CALM    30.36S
#ELLENSBURG CWU N/A         48  38  68  CALM    30.34F
#ELLENSBURG 3NE N/A         47  39  74  CALM    30.34S
#ELLENSBURG 1E  N/A         54  38  55  CALM    N/A
#KITTITAS 4N    N/A         48  40  74  W1      28.66S
#KITTITAS 3S    N/A         48  40  74  CALM    30.38F
#THORP 6N       N/A         46  39  76  SE6     30.39S
$$

WAZ027-282110-
YAKIMA VALLEY

CITY            SKY/WX      TMP DP  RH  WIND    PRES   REMARKS
SUNNYSIDE AP    FOG         32  32  100 CALM    30.43F VSB 1/2
YAKIMA AIRPORT  FOG         36  33  89  NE3     30.41F VSB 1/4
YAKIMA-VAGABOND N/A         34  32  92  W1      30.38F FOG
#DONALD 2NE     N/A         35  35  100 NW1     29.25F
#GRANDVIEW      N/A         36  35  96  CALM    30.47F
#MABTON         N/A         36  36  100 CALM    30.42F
#MOXEE 2E       N/A         38  38  100 SW1     30.35F
#NACHES 2SW     N/A         44  38  79  E2      30.37S
#OUTLOOK DOT    N/A         N/A N/A N/A E2      N/A
#SELAH 8E       N/A         48  37  65  NW6     N/A
#TERRACE HTS    N/A         34  33  96  CALM    30.42F
#TOPPENISH      N/A         34  33  96  CALM    30.37F
#WAPATO 4NE     N/A         34  34  100 CALM    29.25F
#WEST VALLEY    N/A         33  32  96  CALM    30.43F
#W YAKIMA       N/A         34  33  96  E2      30.46F
#WHITE SWAN 5E  N/A         33  32  96  CALM    30.46F
#WILEY CITY 3W  N/A         40  37  89  CALM    30.41S
$$

WAZ028-282110-
LOWER COLUMBIA BASIN...WASHINGTON

CITY            SKY/WX      TMP DP  RH  WIND    PRES   REMARKS
HANFORD         CLOUDY      36  35  96  N5      30.47S
PASCO           CLOUDY      38  36  92  N10     30.47S FOG
PROSSER AWOS    N/A         37  37  100 NE10    30.46F
RICHLAND AWOS   CLOUDY      37  36  96  N6      30.47S
#BASIN CITY 5SW N/A         38  37  96  N7      30.45S
#BENTON CITY    N/A         35  35  100 E7      30.38S
#CONNELL 5N     N/A         36  36  100 NE5     30.47S
#CONNELL 5NW    N/A         36  36  100 NE5     30.43S
#ELTOPIA 6NW    N/A         36  36  100 N6      29.39S
#KAHLOTUS       N/A         35  35  100 S2      30.46F
#KENNEWICK      N/A         47  38  71  N1      27.92F
#PASCO-BROADMOORN/A         38  34  85  CALM    30.38F
#PATERSON       N/A         38  37  96  CALM    30.42F
#PROSSER        N/A         36  35  96  N5      30.46F
#SAGEMOOR 2W    N/A         37  36  96  W5      30.32S
#TOUCHET 2S     N/A         35  34  96  W3      30.47S
#WEST PASCO     N/A         38  36  92  N2      30.45S
$$

WAZ029-282110-
FOOTHILLS OF THE BLUES...WASHINGTON

CITY            SKY/WX      TMP DP  RH  WIND    PRES   REMARKS
WALLA WALLA AP  FOG         36  36  100 VRB3    30.41S VSB<1/4
#DAYTON SCHOOL  N/A         46  38  73  SW2     30.38R
#LOWDEN 2SE     N/A         36  35  96  W1      30.41S
#PLEASANT VIEW 1N/A         38  37  96  CALM    30.49S
#PRESCOTT       N/A         37  36  96  CALM    30.46S
#SUDBURY        N/A         40  N/A N/A CALM    N/A
#WHITMAN COLLEGEN/A         35  34  96  CALM    30.50S
#WAITSBURG 5S   N/A         35  34  96  SW3     30.53R
#WAITSBURG 8N   N/A         40  28  62  S6      30.24R
#WALLA WALLA 5E N/A         36  35  96  W1      N/A
#WALLA WALLA U  N/A         37  36  96  CALM    30.46R
#WHITMAN MISSIONN/A         36  35  96  W1      30.48R
$$

WAZ030-282110-
BLUE MOUNTAINS...WASHINGTON

CITY            SKY/WX      TMP DP  RH  WIND    PRES   REMARKS
#SKI BLUEWOOD   N/A         44  31  60  S2      30.32S
$$

ORZ009-041-WAZ024-282110-
COLUMBIA RIVER GORGE

CITY            SKY/WX      TMP DP  RH  WIND    PRES   REMARKS
HOOD RIVER AP   MOCLDY      50  46  86  CALM    30.37F
THE DALLES AP   SUNNY       48  41  77  E8      30.38F
#ARLINGTON AIRPON/A         36  36  100 E7      30.02S
#ARLINGTON HS   N/A         40  39  96  S5      30.35S
#CELILO DOT     N/A         44  38  79  NE6     N/A
#LYLE           N/A         48  44  86  S1      30.39F
#MOSIER 1S      N/A         49  45  86  CALM    30.35F
#MURDOCK        N/A         50  46  86  SW3     30.40F
#RUFUS DOT      N/A         41  38  89  CALM    N/A

$$

ORZ510-282110-
NORTH CENTRAL OREGON

CITY            SKY/WX      TMP DP  RH  WIND    PRES   REMARKS
#CHENOWITH 1W   N/A         50  47  89  S2      N/A
#COW CYN RST AREN/A         51  37  59  CALM    N/A
#DUFUR 9E       N/A         47  44  89  NE8     30.40F
#GRASS VALLEY 1SN/A         53  45  74  CALM    30.37F
#KENT DOT       N/A         53  35  50  NE2     N/A
#MAUPIN SCHOOL  N/A         46  41  83  CALM    30.36F
#MORO SCHOOL    N/A         50  48  93  E2      30.34F
#SHANIKO 5WSW   N/A         48  34  58  S6      N/A
#SHANIKO 4NW    N/A         49  38  66  S5      30.33F
#TYGH VALLEY 2NEN/A         49  44  83  CALM    30.37F
#WAPANITIA AIRPON/A         50  43  77  E1      30.37F
#WASCO DOT      N/A         48  43  83  CALM    N/A
#WASCO AIRPORT  N/A         47  43  86  E5      N/A
#WASCO 5NE      N/A         41  40  96  CALM    30.39F
$$

ORZ511-282110-
CENTRAL OREGON

CITY            SKY/WX      TMP DP  RH  WIND    PRES   REMARKS
BEND AIRPORT    SUNNY       50  34  54  E3      30.32F
MADRAS AIRPORT  N/A         50  39  66  MISG    30.35F
PRINEVILLE AP   SUNNY       54  37  52  VRB5    30.32F
REDMOND AIRPORT SUNNY       51  35  54  SE6     30.32F
#BEND 1SW       N/A         50  34  54  W1      N/A
#BEND-AWBREY    N/A         52  37  56  SW9     30.33F
#BEND-KIM LN    N/A         52  38  59  E2      30.29F
#CROOKED RVR RANN/A         53  39  59  E1      30.34F
#CULVER         N/A         54  38  55  S3      30.28F
#LAKE BILLY CHINN/A         55  16  21  S3      30.35F
#POWELL BUTTE 3EN/A         50  37  61  E6      N/A
#POWELL BUTTE   N/A         59  42  53  N1      29.92F
#PRINEVILLE 3N  N/A         52  39  61  NE1     30.31F
#WARM SPRINGS   N/A         50  41  71  CALM    30.31F

$$


ORZ509-282110-
EAST SLOPES OF OREGON CASCADES

CITY            SKY/WX      TMP DP  RH  WIND    PRES   REMARKS
#BLUE BOX PASS  N/A         48  -6  10  CALM    N/A
#CAMP SHERMAN   N/A         56  40  55  CALM    30.33F
#LA PINE 4NW    N/A         47  33  58  CALM    30.42F
#MT BACHELOR-MIDN/A         37  29  72  N5      N/A
#SISTERS AIRPOR N/A         51  44  77  N2      30.17S
#SISTERS ODOT   N/A         50  N/A N/A CALM    N/A
#SISTERS 1NW    N/A         50  35  56  E9      N/A
#SISTERS 3N     N/A         51  38  61  SE3     30.31S
#SUNRIVER       N/A         49  34  56  S3      30.24F
#TUMALO 3W      N/A         51  36  56  E1      30.20F
#WANOGA BUTTE D N/A         43  29  57  W6      N/A

$$

ORZ044-282110-
LOWER COLUMBIA BASIN...OREGON

CITY            SKY/WX      TMP DP  RH  WIND    PRES   REMARKS
HERMISTON       CLOUDY      39  38  96  NE12    30.41S FOG WCI 32
#BOARDMAN SCHOOLN/A         40  40  100 CALM    30.43F
#BOARDMAN 8SW   N/A         37  37  100 N3      30.43F
#ECHO 8SW       N/A         40  40  100 NE5     30.38S
#IONE SCHOOL    N/A         43  30  60  NW3     30.36F
#IRRIGON 4NW    N/A         40  40  100 N2      N/A
#UMATILLA SCHOOLN/A         39  39  100 N2      30.44F
#UMATILLA       N/A         41  38  89  CALM    30.40F
$$

ORZ507-282110-
NORTHERN FOOTHILLS OF THE BLUES

CITY            SKY/WX      TMP DP  RH  WIND    PRES   REMARKS
PENDLETON AIRPT PTCLDY      52  43  71  N3      30.36F
#ADAMS 3WNW     N/A         52  44  74  CALM    30.40F
#ATHENA         N/A         39  38  96  NE6     30.42F
#CAYUSE         N/A         53  44  71  NW2     30.38F
#HELIX SCHOOL   N/A         46  42  86  NW5     30.40S
#HELIX 3N       N/A         39  38  96  N6      30.32S
#HELIX 6SW      N/A         50  44  80  SW2     30.35S
#HOLDMAN 5SE    N/A         49  46  89  CALM    30.36S
#HOLDMAN 6E     N/A         45  41  86  S7      30.21F
#M-F FERNDALE   N/A         37  36  96  CALM    30.41S
#M-F GROVE ELEM N/A         36  34  92  CALM    30.39S
#M-FREEWATER 5SEN/A         37  35  92  CALM    30.38S
#PENDLETON DNTN N/A         58  48  69  NW3     29.14F
#PDT AQUATIC CTRN/A         57  54  90  NW3     30.37S
#PENDLETON 5NE  N/A         53  45  74  W1      30.31F
#PDT SUNRIDGE   N/A         54  44  69  W3      30.37F
#PENDLETON 7NW  N/A         49  41  74  W5      29.05
#TUTUILLA       N/A         55  44  66  N2      30.38F
#UMAPINE 2E     N/A         36  35  96  CALM    30.41R
#WESTON SCHOOL  N/A         38  33  82  E6      30.36R

$$

ORZ508-282110-
SOUTHERN FOOTHILLS OF THE BLUES

CITY            SKY/WX      TMP DP  RH  WIND    PRES   REMARKS
LEXINGTON       PTCLDY      48  43  83  N13     30.37F WCI 43
#AJAX           N/A         49  39  68  N2      30.25F
#CONDON SCHOOL  N/A         52  44  74  CALM    30.27F
#CONDON 5W      N/A         49  38  66  S1      30.30F
#HEPPNER EOC    N/A         51  42  71  W6      30.31F
#HEPPNER 4NE    N/A         50  42  74  N6      30.35F
#LEXINGTON 2SE  N/A         54  44  69  NE5     30.33R
#MIKKALO        N/A         46  42  86  N3      30.35F
#OLEX 4N        N/A         37  36  96  E3      30.37F
#RUGGS 5NE      N/A         52  41  66  N6      30.52S
#RUGGS 2SW      N/A         51  41  68  N6      30.37S

$$

ORZ502-503-282110-
BLUE MOUNTAINS

CITY            SKY/WX      TMP DP  RH  WIND    PRES   REMARKS
MEACHAM         CLOUDY      47  33  58  VRB3    30.34F
#BATTLE MTN DOT N/A         44  40  86  S5      N/A
#HARDMAN 10S    N/A         47  37  68  CALM    30.47F
#HEPPNER 15SE   N/A         46  34  63  NW2     30.24F
#LADD CYN SMT   N/A         47  29  49  N5      N/A
#LADD CREEK ODOTN/A         48  34  58  NE6     N/A
#LONG CREEK HS  N/A         47  39  74  CALM    30.29F
#N POWDER DOT   N/A         44  35  70  W3      N/A
#PIKES PEAK     N/A         43  38  82  SW13    27.99S WCI 36
#TOLLGATE       N/A         36  35  96  CALM    30.22S
#TROY SCHOOL    N/A         48  39  71  W6      30.24F
#UKIAH          N/A         49  40  71  NE1     30.44F
#WESTON 4E      N/A         46  39  76  SW3     30.32F
$$

ORZ505-282110-
JOHN DAY BASIN

CITY            SKY/WX      TMP DP  RH  WIND    PRES   REMARKS
JOHN DAY        SUNNY       51  33  50  CALM    30.34F
#JOHN DAY KJDY  N/A         51  30  44  CALM    30.33F
#DAYVILLE SCHOOLN/A         54  38  55  CALM    30.28F
#MONUMENT HS    N/A         51  39  63  N2      30.34F
#MT. VERNON 5SE N/A         48  36  63  N2      30.29F
#WINLOCK        N/A         53  41  64  W6      30.40F
$$

ORZ506-282110-
OCHOCO AND JOHN DAY HIGHLANDS

CITY            SKY/WX      TMP DP  RH  WIND    PRES   REMARKS
#BUCK CREEK DOT N/A         52  52  100 E5      N/A
#HORSE RIDGE DO N/A         48  31  51  SE3     N/A
#KEYES SMT DOT  N/A         50  35  56  NW2     N/A
#PAULINA SCHOOL N/A         37  35  92  CALM    30.29F
#PINE MTN OBS   N/A         41  31  67  S2      N/A
#PRAIRIE CITY   N/A         52  34  50  SW1     30.34F
#SENECA         N/A         43  N/A N/A S3      N/A
#SENECA 9NW     N/A         43  34  70  CALM    30.40F
$$

ORZ049-282110-
GRANDE RONDE VALLEY

CITY            SKY/WX      TMP DP  RH  WIND    PRES   REMARKS
LA GRANDE       MOSUNNY     54  34  47  CALM    30.34F
#COVE           N/A         51  45  80  NW3     30.03S
#COVE SCHOOL    N/A         51  34  52  CALM    30.30F
#COVE 6NW       N/A         49  35  58  CALM    30.44F
#ELGIN 3N       N/A         53  32  45  CALM    30.13F
#ELGIN 1E       N/A         51  37  59  CALM    N/A
#IMBLER SCHOOL  N/A         50  36  58  CALM    30.29F
#ISLAND CITY 4N N/A         51  51  100 CALM    30.34F
#LADD CYN DOT   N/A         52  34  50  NW6     N/A
#UNION 1S       N/A         52  36  54  CALM    30.30F
$$

ORZ050-282110-
WALLOWA COUNTY

CITY            SKY/WX      TMP DP  RH  WIND    PRES   REMARKS
JOSEPH AIRPORT  SUNNY       45  30  55  CALM    30.35F
#ENTERPRISE AP  N/A         48  31  51  CALM    30.25S
#ENTERPRISE HS  N/A         48  35  60  CALM    30.31F
#IMNAHA SCHOOL  N/A         53  38  57  S1      30.32F
#IMNAHA 10S     N/A         51  32  48  S1      30.31F
#JOSEPH 3N      N/A         44  38  79  W1      30.35S
#JOSEPH 3W      N/A         42  28  57  CALM    30.15R
#LOSTINE        N/A         47  37  68  CALM    30.24F
#MT HOWARD 8000 N/A         31  22  69  CALM    30.28R
#PROMISE 1S     N/A         45  33  63  SE5     30.47S
#SHEEP RDG 7000 N/A         28  26  92  CALM    30.37R
#WALLOWA SCHOOL N/A         47  38  71  N1      31.41F



$$




U.S. Dept. of Commerce
NOAA National Weather Service
1325 East West Highway
Silver Spring, MD 20910
E-mail: w-nws.webmaster@noaa.gov
Page last modified: May 16, 2007
NATIONAL WEATHER SERVICE: for Safety, for Work, for Fun - FOR LIFE